{"data":{"norad_id":48437,"epoch":"2026-05-24T22:18:37.664640Z","epoch_age_seconds":84202,"freshness":"FRESH","line1":"1 48437U 21040K   26144.92960260 -.00000468  00000+0 -33018-5 0  9993","line2":"2 48437  53.1588 196.4513 0001249  86.2819 273.8325 15.31702425278172","mean_motion":15.31702425,"eccentricity":0.0001249,"inclination_deg":53.1588,"raan_deg":196.4513,"arg_perigee_deg":86.2819,"mean_anomaly_deg":273.8325,"bstar":-3.3018e-6,"rev_number":27817,"period_min":94.013039118875,"perigee_km":469.87734260254,"apogee_km":471.5881902702,"semimajor_km":6848.8697664364,"source":"CELESTRAK","updated_at":"2026-05-25T13:38:16.715306Z"}}